KAL510 EHAM-RKSI

Flight info

Callsign KAL510
Flight time N/A
Altitude 29000
Route ARNEM L620 SUVOX Z718 OSNAD L980 SAS L986 BOLBO M748 HDO DCT ODLIV DCT ODNEM DCT BUDOP/N0490F310 DCT DINRO N743 UDROS UM859 KARDE UN644 ROLIN DCT TAGAR DCT BT DCT BARAD M747 SUBUT T916 BALUN/K0902F330 T916 PIGAL M610 RULAD/K0895S1010 A343 POSOT B215 FKG W188 RIMDU/K0895S1070 W188 LIKMI W270 DKO W69 HUR B339 LADIX W34 VAPGU W100 ORAVA W201 UNSEK A326 DONVO G597 AGAVO Y644 REBIT
Aircraft B77L/H-SDE1E2E3FGHIJ2J3J4J5M1RWXY/LB1D1

Departure

Time N/A
Airport Amsterdam Airport Schiphol (EHAM)

Arrival

Time 2026-05-05 06:21
Airport Incheon International Airport (RKSI)
Time Latitude Longitude Altitude Speed Heading
2026-05-05 05:47 37.93364 122.86222 34964 ft 508 kts 133°
2026-05-05 05:47 37.90896 122.89411 34961 ft 506 kts 133°
2026-05-05 05:48 37.85949 122.95797 34978 ft 511 kts 134°
2026-05-05 05:48 37.80976 123.02203 34975 ft 508 kts 134°
2026-05-05 05:49 37.76011 123.08588 34991 ft 510 kts 134°
2026-05-05 05:49 37.71028 123.14982 34983 ft 509 kts 134°
2026-05-05 05:50 37.66047 123.21361 34991 ft 512 kts 134°
2026-05-05 05:50 37.61088 123.27701 34993 ft 510 kts 134°
2026-05-05 05:51 37.56168 123.34146 35000 ft 510 kts 130°
2026-05-05 05:51 37.51863 123.41240 34767 ft 508 kts 126°
2026-05-05 05:52 37.49767 123.44829 34466 ft 509 kts 126°
2026-05-05 05:52 37.47667 123.48415 34261 ft 507 kts 126°
2026-05-05 05:52 37.45566 123.51977 34012 ft 506 kts 127°
2026-05-05 05:52 37.43449 123.55540 33524 ft 509 kts 127°
2026-05-05 05:53 37.41327 123.59093 33272 ft 507 kts 127°
2026-05-05 05:53 37.39238 123.62580 33046 ft 504 kts 127°
2026-05-05 05:53 37.37125 123.66102 32614 ft 506 kts 127°
2026-05-05 05:53 37.35004 123.69634 32182 ft 507 kts 127°
2026-05-05 05:54 37.32884 123.73162 31890 ft 505 kts 127°
2026-05-05 05:54 37.30762 123.76693 30908 ft 509 kts 127°
2026-05-05 05:54 37.28639 123.80221 30248 ft 502 kts 127°
2026-05-05 05:54 37.26542 123.83703 29521 ft 496 kts 127°
2026-05-05 05:55 37.24474 123.87134 28853 ft 489 kts 127°
2026-05-05 05:55 37.22431 123.90521 28233 ft 482 kts 127°
2026-05-05 05:55 37.20421 123.93848 27640 ft 476 kts 127°
2026-05-05 05:55 37.18597 123.97249 27026 ft 467 kts 116°
2026-05-05 05:56 37.17759 123.99718 26827 ft 461 kts 107°
2026-05-05 05:56 37.16869 124.04944 26636 ft 459 kts 95°
2026-05-05 05:56 37.16785 124.07598 26113 ft 464 kts 87°
2026-05-05 05:56 37.16996 124.11628 25604 ft 459 kts 84°
2026-05-05 05:57 37.17236 124.15588 25182 ft 452 kts 85°
2026-05-05 05:57 37.17424 124.19487 24802 ft 445 kts 86°
2026-05-05 05:57 37.17571 124.23342 24440 ft 440 kts 86°
2026-05-05 05:57 37.17717 124.28415 23969 ft 436 kts 87°
2026-05-05 05:58 37.17771 124.30978 23732 ft 435 kts 87°
2026-05-05 05:58 37.17848 124.34763 23333 ft 432 kts 87°
2026-05-05 05:58 37.17931 124.38522 22945 ft 430 kts 87°
2026-05-05 05:58 37.18016 124.42225 22581 ft 429 kts 88°
2026-05-05 05:59 37.18102 124.45963 22227 ft 427 kts 88°
2026-05-05 05:59 37.18187 124.49681 21878 ft 426 kts 88°
2026-05-05 05:59 37.18271 124.53401 21531 ft 426 kts 88°
2026-05-05 05:59 37.18353 124.57110 21183 ft 425 kts 88°
2026-05-05 06:00 37.18435 124.60818 20837 ft 424 kts 88°
2026-05-05 06:00 37.18515 124.64519 20492 ft 424 kts 88°
2026-05-05 06:00 37.18592 124.68164 20153 ft 423 kts 88°
2026-05-05 06:00 37.18669 124.71853 19809 ft 422 kts 88°
2026-05-05 06:01 37.18745 124.75523 19470 ft 421 kts 88°
2026-05-05 06:01 37.18821 124.79202 19127 ft 420 kts 88°
2026-05-05 06:01 37.18894 124.82858 18788 ft 418 kts 88°
2026-05-05 06:01 37.18967 124.86496 18450 ft 416 kts 88°
2026-05-05 06:02 37.19042 124.90123 18071 ft 414 kts 89°
2026-05-05 06:02 37.19115 124.93726 17706 ft 411 kts 89°
2026-05-05 06:02 37.19187 124.97300 17358 ft 408 kts 89°
2026-05-05 06:02 37.19258 125.00841 17014 ft 404 kts 89°
2026-05-05 06:03 37.19326 125.04310 16700 ft 401 kts 89°
2026-05-05 06:03 37.19392 125.07790 16370 ft 398 kts 89°
2026-05-05 06:03 37.19458 125.11248 16042 ft 395 kts 89°
2026-05-05 06:03 37.19522 125.14687 15729 ft 393 kts 89°
2026-05-05 06:04 37.19584 125.18104 15408 ft 391 kts 89°
2026-05-05 06:04 37.19645 125.21505 15089 ft 389 kts 89°
2026-05-05 06:04 37.19705 125.24893 14770 ft 388 kts 89°
2026-05-05 06:04 37.19764 125.28272 14461 ft 386 kts 89°
2026-05-05 06:05 37.19822 125.31639 14151 ft 385 kts 90°
2026-05-05 06:05 37.19878 125.34991 13832 ft 384 kts 90°
2026-05-05 06:05 37.19934 125.38339 13416 ft 385 kts 90°
2026-05-05 06:05 37.19989 125.41698 13036 ft 384 kts 90°
2026-05-05 06:06 37.20060 125.45034 12704 ft 380 kts 87°
2026-05-05 06:06 37.20501 125.48260 12386 ft 380 kts 75°
2026-05-05 06:06 37.21409 125.51369 12080 ft 380 kts 65°
2026-05-05 06:06 37.22706 125.54240 11770 ft 376 kts 58°
2026-05-05 06:07 37.24082 125.56981 11455 ft 363 kts 58°
2026-05-05 06:07 37.25377 125.59549 11159 ft 334 kts 58°
2026-05-05 06:07 37.26573 125.61940 10895 ft 315 kts 58°
2026-05-05 06:07 37.27712 125.64237 10643 ft 303 kts 58°
2026-05-05 06:08 37.28799 125.66446 10394 ft 293 kts 58°
2026-05-05 06:08 37.29855 125.68597 10175 ft 288 kts 58°
2026-05-05 06:08 37.30907 125.70746 9943 ft 290 kts 58°
2026-05-05 06:08 37.31966 125.72913 9687 ft 292 kts 58°
2026-05-05 06:09 37.33032 125.75097 9450 ft 293 kts 58°
2026-05-05 06:09 37.34110 125.77236 9197 ft 293 kts 56°
2026-05-05 06:09 37.35248 125.79356 8943 ft 292 kts 55°
2026-05-05 06:09 37.36393 125.81463 8715 ft 292 kts 55°
2026-05-05 06:10 37.37537 125.83569 8472 ft 290 kts 55°
2026-05-05 06:10 37.38670 125.85662 8232 ft 288 kts 55°
2026-05-05 06:10 37.39789 125.87735 7996 ft 285 kts 55°
2026-05-05 06:10 37.40891 125.89782 7768 ft 281 kts 55°
2026-05-05 06:11 37.41985 125.91818 7534 ft 280 kts 56°
2026-05-05 06:11 37.43076 125.93851 7311 ft 279 kts 56°
2026-05-05 06:11 37.44160 125.95874 7078 ft 278 kts 56°
2026-05-05 06:11 37.45244 125.97898 6855 ft 278 kts 56°
2026-05-05 06:12 37.46313 125.99897 6636 ft 278 kts 56°
2026-05-05 06:12 37.46605 126.00443 6563 ft 278 kts 56°
2026-05-05 06:12 37.47684 126.02461 6346 ft 277 kts 56°
2026-05-05 06:12 37.48722 126.04403 6100 ft 277 kts 56°
2026-05-05 06:13 37.49822 126.06464 5869 ft 277 kts 56°
2026-05-05 06:13 37.50894 126.08475 5638 ft 276 kts 56°
2026-05-05 06:13 37.51965 126.10484 5413 ft 275 kts 56°
2026-05-05 06:13 37.53032 126.12485 5185 ft 275 kts 56°
2026-05-05 06:14 37.54098 126.14486 4961 ft 275 kts 56°
2026-05-05 06:14 37.55161 126.16484 4714 ft 274 kts 57°
2026-05-05 06:14 37.56208 126.18452 4494 ft 274 kts 57°
2026-05-05 06:14 37.57272 126.20436 4267 ft 273 kts 56°
2026-05-05 06:15 37.58371 126.22379 4065 ft 270 kts 55°
2026-05-05 06:15 37.59452 126.24272 3830 ft 263 kts 56°
2026-05-05 06:15 37.60501 126.26115 3596 ft 255 kts 56°
2026-05-05 06:15 37.61518 126.27905 3432 ft 244 kts 56°
2026-05-05 06:16 37.62347 126.29686 3183 ft 227 kts 79°
2026-05-05 06:16 37.62204 126.31467 3000 ft 191 kts 128°
2026-05-05 06:16 37.61286 126.32446 2897 ft 168 kts 155°
2026-05-05 06:16 37.60316 126.33302 2838 ft 173 kts 149°
2026-05-05 06:17 37.59359 126.34204 2711 ft 173 kts 150°
2026-05-05 06:17 37.58398 126.35078 2503 ft 167 kts 151°
2026-05-05 06:17 37.57474 126.35908 2259 ft 158 kts 152°
2026-05-05 06:17 37.56622 126.36672 2060 ft 143 kts 152°
2026-05-05 06:18 37.55814 126.37392 1878 ft 142 kts 152°
2026-05-05 06:18 37.55008 126.38110 1687 ft 142 kts 152°
2026-05-05 06:18 37.54200 126.38832 1490 ft 144 kts 151°
2026-05-05 06:18 37.53378 126.39567 1313 ft 144 kts 150°
2026-05-05 06:19 37.52552 126.40306 1090 ft 145 kts 151°
2026-05-05 06:19 37.51727 126.41041 866 ft 147 kts 150°
2026-05-05 06:19 37.50898 126.41784 669 ft 143 kts 150°
2026-05-05 06:19 37.50105 126.42508 473 ft 142 kts 150°
2026-05-05 06:20 37.49283 126.43231 273 ft 144 kts 150°
2026-05-05 06:20 37.48466 126.43959 91 ft 144 kts 149°
2026-05-05 06:20 37.47673 126.44657 37 ft 127 kts 143°
2026-05-05 06:20 37.47108 126.45167 37 ft 73 kts 145°
2026-05-05 06:21 37.46839 126.45410 37 ft 26 kts 138°
2026-05-05 06:21 37.46749 126.45549 37 ft 21 kts 122°
2026-05-05 06:21 37.46687 126.45702 37 ft 18 kts 115°
2026-05-05 06:21 37.46633 126.45845 37 ft 18 kts 117°
2026-05-05 06:22 37.46552 126.45963 37 ft 18 kts 144°
2026-05-05 06:22 37.46449 126.46055 37 ft 18 kts 144°
2026-05-05 06:22 37.46354 126.46141 36 ft 15 kts 142°
2026-05-05 06:22 37.46360 126.46242 36 ft 14 kts 43°
2026-05-05 06:23 37.46423 126.46329 37 ft 14 kts 56°
2026-05-05 06:23 37.46478 126.46426 37 ft 14 kts 54°
2026-05-05 06:23 37.46517 126.46512 37 ft 9 kts 89°
2026-05-05 06:23 37.46478 126.46577 37 ft 9 kts 147°
2026-05-05 06:24 37.46466 126.46586 37 ft 3 kts 144°
2026-05-05 06:24 37.46467 126.46584 37 ft 0 kts 145°